"Pseudo-MPEC" for CA202DE

Created 2020 Sep 19 22:07:17 UT using Find_Orb

Click here for an explanation of pseudo-MPECs

 
 Astrometry: 
     CA202DE  C2020 09 04:tK;aAstrometryZ@+;o,mXiklc9gOZM,VVredacted;6K3*Q6$W954
     CA202DE  C2020 09 04+@7%%Rclicku1-here2CR$aEk6ZsB6)for2a=m,uJ7;aq@nF,HSk954
     CA202DE  C2020 09 04_BR+gBeexplanation:d!CQ=:ndFCh89)/3wU?yb]EGYwR!tq;^s954

Station data:
(954) Teide Observatory  (N28.298383 W16.509400)  Canary Islands (Spain).

Orbital elements:  CA202DE
   Perihelion 2020 Apr 12.203467 +/- 628 TT =  4:52:59 (JD 2458951.703467)
Epoch 2020 Sep  4.0 TT = JDT 2459096.5   Earth MOID: 0.0290   AutoNEOCP
M 150.55426940 +/- 110              (J2000 ecliptic)
n   1.03976432 +/- 0.543            Peri.  335.17008 +/- 55
a   0.96496769 +/- 0.336            Node   215.40510 +/- 60
e   0.0706527 +/- 0.194             Incl.    3.13706 +/- 39
P   0.95/346.23d           H 24.8   G  0.15   U 12.3  SR
q 0.89679008 +/- 1.87    Q 1.03314530 +/- 36.2
From 3 observations 2020 Sept. 4 (12.6 min); mean residual 0".05
Residuals in arcseconds: 
200904 954  .02-  .00     200904 954  .09+  .01-    200904 954  .07-  .00     

Ephemerides (geocentric):
Date (UTC) HH   RA              Dec         delta   r     elong  mag " sig PA
---- -- -- --  -------------   -----------  ------ ------ -----  --- ---- ---
2020 09 19 22  02 36 13.160   +51 58 54.00  .05844 1.0316 116.4 20.9  31d 133
2020 09 19 23  02 36 08.898   +51 58 10.99  .05840 1.0316 116.4 20.9  31d 133
2020 09 20 00  02 36 04.622   +51 57 27.81  .05836 1.0317 116.5 20.9  31d 133
2020 09 20 01  02 36 00.332   +51 56 44.46  .05832 1.0317 116.5 20.9  32d 133
2020 09 20 02  02 35 56.028   +51 56 00.96  .05828 1.0317 116.6 20.8  32d 133
2020 09 20 03  02 35 51.710   +51 55 17.28  .05823 1.0317 116.6 20.8  32d 133
2020 09 20 04  02 35 47.378   +51 54 33.45  .05819 1.0317 116.7 20.8  32d 133
2020 09 20 05  02 35 43.032   +51 53 49.44  .05815 1.0317 116.7 20.8  32d 133
2020 09 20 06  02 35 38.672   +51 53 05.27  .05811 1.0317 116.8 20.8  32d 133
2020 09 20 07  02 35 34.298   +51 52 20.93  .05806 1.0317 116.8 20.8  32d 133
2020 09 20 08  02 35 29.910   +51 51 36.43  .05802 1.0317 116.9 20.8  32d 133
2020 09 20 09  02 35 25.507   +51 50 51.76  .05798 1.0317 116.9 20.8  32d 133
2020 09 20 10  02 35 21.091   +51 50 06.92  .05794 1.0317 116.9 20.8  32d 133
2020 09 20 11  02 35 16.661   +51 49 21.91  .05790 1.0318 117.0 20.8  32d 133
2020 09 20 12  02 35 12.216   +51 48 36.73  .05785 1.0318 117.0 20.8  32d 133
2020 09 20 13  02 35 07.758   +51 47 51.38  .05781 1.0318 117.1 20.8  32d 133
2020 09 20 14  02 35 03.286   +51 47 05.86  .05777 1.0318 117.1 20.8  32d 133
2020 09 20 15  02 34 58.799   +51 46 20.17  .05773 1.0318 117.2 20.8  32d 133
2020 09 20 16  02 34 54.299   +51 45 34.31  .05768 1.0318 117.2 20.8  32d 133
2020 09 20 17  02 34 49.784   +51 44 48.28  .05764 1.0318 117.3 20.8  33d 133
2020 09 20 18  02 34 45.256   +51 44 02.07  .05760 1.0318 117.3 20.8  33d 133
2020 09 20 19  02 34 40.713   +51 43 15.70  .05756 1.0318 117.4 20.8  33d 133
2020 09 20 20  02 34 36.157   +51 42 29.15  .05751 1.0318 117.4 20.8  33d 133
2020 09 20 21  02 34 31.586   +51 41 42.42  .05747 1.0319 117.5 20.8  33d 133
2020 09 20 22  02 34 27.002   +51 40 55.52  .05743 1.0319 117.5 20.8  33d 133
2020 09 20 23  02 34 22.403   +51 40 08.45  .05739 1.0319 117.6 20.8  33d 133
2020 09 21 00  02 34 17.791   +51 39 21.20  .05735 1.0319 117.6 20.8  33d 134
2020 09 21 01  02 34 13.164   +51 38 33.78  .05730 1.0319 117.7 20.8  33d 134
2020 09 21 02  02 34 08.524   +51 37 46.18  .05726 1.0319 117.7 20.8  33d 134
2020 09 21 03  02 34 03.869   +51 36 58.40  .05722 1.0319 117.8 20.8  33d 134
2020 09 21 04  02 33 59.201   +51 36 10.45  .05718 1.0319 117.8 20.8  33d 134
2020 09 21 05  02 33 54.518   +51 35 22.32  .05713 1.0319 117.9 20.8  33d 134
2020 09 21 06  02 33 49.822   +51 34 34.01  .05709 1.0319 117.9 20.8  33d 134
2020 09 21 07  02 33 45.111   +51 33 45.52  .05705 1.0319 118.0 20.8  33d 134
2020 09 21 08  02 33 40.387   +51 32 56.85  .05701 1.0320 118.0 20.8  33d 134
2020 09 21 09  02 33 35.649   +51 32 08.00  .05696 1.0320 118.1 20.8  33d 134
2020 09 21 10  02 33 30.896   +51 31 18.98  .05692 1.0320 118.1 20.8  33d 134
2020 09 21 11  02 33 26.130   +51 30 29.77  .05688 1.0320 118.2 20.8  33d 134
2020 09 21 12  02 33 21.350   +51 29 40.38  .05684 1.0320 118.2 20.7  33d 134
2020 09 21 13  02 33 16.556   +51 28 50.81  .05680 1.0320 118.3 20.7  33d 134
2020 09 21 14  02 33 11.747   +51 28 01.06  .05675 1.0320 118.3 20.7  33d 134
2020 09 21 15  02 33 06.925   +51 27 11.12  .05671 1.0320 118.4 20.7  33d 134
2020 09 21 16  02 33 02.089   +51 26 21.00  .05667 1.0320 118.4 20.7  33d 134
2020 09 21 17  02 32 57.239   +51 25 30.70  .05663 1.0320 118.5 20.7  33d 134
2020 09 21 18  02 32 52.376   +51 24 40.21  .05658 1.0320 118.5 20.7  33d 134
2020 09 21 19  02 32 47.498   +51 23 49.54  .05654 1.0320 118.6 20.7  33d 134
2020 09 21 20  02 32 42.606   +51 22 58.69  .05650 1.0321 118.6 20.7  33d 134
2020 09 21 21  02 32 37.700   +51 22 07.64  .05646 1.0321 118.7 20.7  33d 134